| time (UTC) | temp F | wind direction | speed MPH | gust MPH | rain 1hr in | rain 24hr in | rain mn in | humidity % | barometer mb |
| 20260508234023 | 76 | 304 | 2.0 | 8.0 | 0.00 | 0.00 | 0.00 | 60 | |
| 20260508232221 | 77 | 286 | 0.0 | 4.0 | 0.00 | 0.00 | 0.00 | 61 | |
| 20260508231710 | 76 | 30 | 0.0 | 3.0 | 0.00 | 0.00 | 0.00 | 61 | |
| 20260508231216 | 76 | 304 | 0.0 | 4.0 | 0.00 | 0.00 | 0.00 | 61 | |
| 20260508230721 | 77 | 343 | 0.0 | 4.0 | 0.00 | 0.00 | 0.00 | 60 | |
| 20260508225603 | 76 | 115 | 2.0 | 6.0 | 0.00 | 0.00 | 0.00 | 61 | |
| 20260508225044 | 76 | 316 | 2.0 | 10.0 | 0.00 | 0.00 | 0.00 | 61 | |
| 20260508224527 | 76 | 294 | 3.0 | 10.0 | 0.00 | 0.00 | 0.00 | 61 | |
| 20260508224034 | 76 | 309 | 3.0 | 10.0 | 0.00 | 0.00 | 0.00 | 60 | |
| 20260508223539 | 76 | 300 | 3.0 | 10.0 | 0.00 | 0.00 | 0.00 | 60 | |
| 20260508223043 | 77 | 299 | 3.0 | 9.0 | 0.00 | 0.00 | 0.00 | 61 | |
| 20260508222548 | 77 | 321 | 3.0 | 9.0 | 0.00 | 0.00 | 0.00 | 59 | |
| 20260508222034 | 78 | 305 | 3.0 | 9.0 | 0.00 | 0.00 | 0.00 | 59 | |
| 20260508221532 | 78 | 329 | 2.0 | 7.0 | 0.00 | 0.00 | 0.00 | 58 | |
| 20260508221015 | 78 | 291 | 3.0 | 7.0 | 0.00 | 0.00 | 0.00 | 58 | |
| 20260508220518 | 78 | 300 | 2.0 | 7.0 | 0.00 | 0.00 | 0.00 | 58 | |
| 20260508220006 | 79 | 284 | 1.0 | 7.0 | 0.00 | 0.00 | 0.00 | 57 | |
| 20260508215458 | 79 | 326 | 0.0 | 4.0 | 0.00 | 0.00 | 0.00 | 58 | |
| 20260508214959 | 79 | 288 | 0.0 | 3.0 | 0.00 | 0.00 | 0.00 | 57 | |
| 20260508214453 | 78 | 294 | 1.0 | 1.0 | 0.00 | 0.00 | 0.00 | 59 | |
| 20260508213949 | 78 | 294 | 1.0 | 8.0 | 0.00 | 0.00 | 0.00 | 60 | |
| 20260508213436 | 77 | 290 | 2.0 | 6.0 | 0.00 | 0.00 | 0.00 | 60 | |
| 20260508212940 | 78 | 311 | 1.0 | 6.0 | 0.00 | 0.00 | 0.00 | 59 | |
| 20260508212436 | 78 | 281 | 1.0 | 4.0 | 0.00 | 0.00 | 0.00 | 58 | |
| 20260508211933 | 78 | 311 | 1.0 | 8.0 | 0.00 | 0.00 | 0.00 | 60 | |
| 20260508211417 | 78 | 279 | 1.0 | 5.0 | 0.00 | 0.00 | 0.00 | 59 | |
| 20260508210906 | 78 | 302 | 0.0 | 5.0 | 0.00 | 0.00 | 0.00 | 60 | |
| 20260508210413 | 78 | 98 | 0.0 | 5.0 | 0.00 | 0.00 | 0.00 | 60 | |
| 20260508205250 | 77 | 315 | 1.0 | 5.0 | 0.00 | 0.00 | 0.00 | 61 | |
| 20260508204733 | 77 | 184 | 0.0 | 6.0 | 0.00 | 0.00 | 0.00 | 61 | |
| 20260508204218 | 77 | 157 | 1.0 | 6.0 | 0.00 | 0.00 | 0.00 | 61 | |
| 20260508202432 | 76 | 30 | 1.0 | 6.0 | 0.00 | 0.00 | 0.00 | 64 | |
| 20260508201918 | 75 | 247 | 1.0 | 7.0 | 0.00 | 0.00 | 0.00 | 64 | |
| 20260508201418 | 75 | 302 | 1.0 | 7.0 | 0.00 | 0.00 | 0.00 | 64 | |
| 20260508200908 | 75 | 286 | 2.0 | 7.0 | 0.00 | 0.00 | 0.00 | 65 | |
| 20260508195726 | 73 | 298 | 1.0 | 5.0 | 0.00 | 0.00 | 0.00 | 67 | |
| 20260508195212 | 73 | 306 | 2.0 | 7.0 | 0.00 | 0.00 | 0.00 | 68 | |
| 20260508194711 | 73 | 290 | 1.0 | 7.0 | 0.00 | 0.00 | 0.00 | 70 | |
| 20260508194201 | 72 | 309 | 1.0 | 8.0 | 0.00 | 0.00 | 0.00 | 70 | |
| 20260508193652 | 72 | 283 | 2.0 | 8.0 | 0.00 | 0.00 | 0.00 | 69 | |
| 20260508193201 | 72 | 292 | 2.0 | 8.0 | 0.00 | 0.00 | 0.00 | 71 | |
| 20260508192653 | 71 | 309 | 2.0 | 8.0 | 0.00 | 0.00 | 0.00 | 71 | |
| 20260508192203 | 71 | 293 | 2.0 | 6.0 | 0.00 | 0.00 | 0.00 | 72 | |
| 20260508191711 | 71 | 315 | 1.0 | 5.0 | 0.00 | 0.00 | 0.00 | 73 | |
| 20260508191216 | 70 | 298 | 2.0 | 5.0 | 0.00 | 0.00 | 0.00 | 74 | |
| 20260508190056 | 69 | 294 | 1.0 | 5.0 | 0.00 | 0.00 | 0.00 | 76 | |
| 20260508185545 | 68 | 290 | 1.0 | 5.0 | 0.00 | 0.00 | 0.00 | 77 | |
| 20260508185034 | 67 | 294 | 0.0 | 4.0 | 0.00 | 0.00 | 0.00 | 79 | |
| 20260508184541 | 67 | 140 | 0.0 | 3.0 | 0.00 | 0.00 | 0.00 | 80 | |
| 20260508184043 | 66 | 293 | 1.0 | 5.0 | 0.00 | 0.00 | 0.00 | 81 | |
| 20260508183524 | 66 | 302 | 1.0 | 5.0 | 0.00 | 0.00 | 0.00 | 81 | |
| 20260508183021 | 65 | 300 | 0.0 | 3.0 | 0.00 | 0.00 | 0.00 | 83 | |
| 20260508182507 | 65 | 300 | 0.0 | 3.0 | 0.00 | 0.00 | 0.00 | 84 | |
| 20260508181958 | 64 | 300 | 0.0 | 3.0 | 0.00 | 0.00 | 0.00 | 85 | |
| 20260508180827 | 63 | 300 | 0.0 | 0.0 | 0.00 | 0.00 | 0.00 | 88 | |
| 20260508180332 | 63 | 300 | 0.0 | 0.0 | 0.00 | 0.00 | 0.00 | 88 | |
| 20260508175832 | 62 | 300 | 0.0 | 0.0 | 0.00 | 0.00 | 0.00 | 89 | |
| 20260508175331 | 62 | 300 | 0.0 | 0.0 | 0.00 | 0.00 | 0.00 | 90 | |
| 20260508174826 | 61 | 300 | 0.0 | 0.0 | 0.00 | 0.00 | 0.00 | 91 | |
| 20260508174310 | 61 | 300 | 0.0 | 1.0 | 0.00 | 0.00 | 0.00 | 91 | |
| 20260508173758 | 61 | 300 | 0.0 | 2.0 | 0.00 | 0.00 | 0.00 | 92 | |
| 20260508173303 | 61 | 300 | 0.0 | 0.0 | 0.00 | 0.00 | 0.00 | 93 | |
| 20260508172744 | 60 | 300 | 0.0 | 0.0 | 0.00 | 0.00 | 0.00 | 93 | |
| 20260508172225 | 60 | 300 | 0.0 | 1.0 | 0.00 | 0.00 | 0.00 | 93 | |
| 20260508171714 | 60 | 300 | 0.0 | 0.0 | 0.00 | 0.00 | 0.00 | 94 | |
| 20260508171158 | 60 | 300 | 0.0 | 0.0 | 0.00 | 0.00 | 0.00 | 94 | |
| 20260508170649 | 60 | 300 | 0.0 | 0.0 | 0.00 | 0.00 | 0.00 | 94 | |
| 20260508170145 | 60 | 300 | 0.0 | 0.0 | 0.00 | 0.00 | 0.00 | 94 | |
| 20260508163738 | 59 | 300 | 0.0 | 0.0 | 0.00 | 0.00 | 0.00 | 95 | |
| 20260508163244 | 59 | 300 | 0.0 | 0.0 | 0.00 | 0.00 | 0.00 | 95 | |
| 20260508162730 | 59 | 300 | 0.0 | 0.0 | 0.00 | 0.00 | 0.00 | 95 | |
| 20260508162236 | 58 | 300 | 0.0 | 0.0 | 0.00 | 0.00 | 0.00 | 95 | |
| 20260508161739 | 58 | 300 | 0.0 | 0.0 | 0.00 | 0.00 | 0.00 | 95 | |
| 20260508161223 | 58 | 300 | 0.0 | 0.0 | 0.00 | 0.00 | 0.00 | 95 | |
| 20260508160732 | 58 | 300 | 0.0 | 0.0 | 0.00 | 0.00 | 0.00 | 95 | |
| 20260508160234 | 58 | 300 | 0.0 | 0.0 | 0.00 | 0.00 | 0.00 | 95 | |
| 20260508155105 | 58 | 300 | 0.0 | 0.0 | 0.00 | 0.00 | 0.00 | 95 | |
| 20260508154552 | 57 | 300 | 0.0 | 0.0 | 0.00 | 0.00 | 0.00 | 95 | |
| 20260508154056 | 57 | 300 | 0.0 | 0.0 | 0.00 | 0.00 | 0.00 | 95 | |
| 20260508153605 | 57 | 300 | 0.0 | 0.0 | 0.00 | 0.00 | 0.00 | 95 | |
| 20260508153046 | 57 | 300 | 0.0 | 0.0 | 0.00 | 0.00 | 0.00 | 95 | |
| 20260508152538 | 57 | 300 | 0.0 | 0.0 | 0.00 | 0.00 | 0.00 | 95 | |
| 20260508152039 | 57 | 300 | 0.0 | 0.0 | 0.00 | 0.00 | 0.00 | 95 | |
| 20260508150848 | 56 | 300 | 0.0 | 0.0 | 0.00 | 0.00 | 0.00 | 95 | |
| 20260508150331 | 56 | 300 | 0.0 | 0.0 | 0.00 | 0.00 | 0.00 | 95 | |
| 20260508145832 | 56 | 300 | 0.0 | 0.0 | 0.00 | 0.00 | 0.00 | 95 | |
| 20260508145318 | 56 | 300 | 0.0 | 0.0 | 0.00 | 0.00 | 0.00 | 95 | |
| 20260508144813 | 56 | 300 | 0.0 | 0.0 | 0.00 | 0.00 | 0.00 | 95 | |
| 20260508144311 | 56 | 300 | 0.0 | 0.0 | 0.00 | 0.00 | 0.00 | 95 | |
| 20260508143807 | 56 | 300 | 0.0 | 0.0 | 0.00 | 0.00 | 0.00 | 95 | |
| 20260508143304 | 56 | 300 | 0.0 | 0.0 | 0.00 | 0.00 | 0.00 | 95 | |
| 20260508142128 | 55 | 300 | 0.0 | 0.0 | 0.00 | 0.00 | 0.00 | 95 | |
| 20260508141632 | 55 | 300 | 0.0 | 0.0 | 0.00 | 0.00 | 0.00 | 95 | |
| 20260508141115 | 55 | 300 | 0.0 | 0.0 | 0.00 | 0.00 | 0.00 | 95 | |
| 20260508140622 | 55 | 300 | 0.0 | 0.0 | 0.00 | 0.00 | 0.00 | 95 | |
| 20260508140117 | 55 | 300 | 0.0 | 0.0 | 0.00 | 0.00 | 0.00 | 95 | |
| 20260508135619 | 55 | 300 | 0.0 | 0.0 | 0.00 | 0.00 | 0.00 | 95 | |
| 20260508133812 | 55 | 300 | 0.0 | 0.0 | 0.00 | 0.00 | 0.00 | 95 | |
| 20260508132701 | 54 | 300 | 0.0 | 0.0 | 0.00 | 0.00 | 0.00 | 94 | |
| 20260508132159 | 54 | 300 | 0.0 | 0.0 | 0.00 | 0.00 | 0.00 | 94 | |
| 20260508131645 | 54 | 300 | 0.0 | 0.0 | 0.00 | 0.00 | 0.00 | 94 | |
| 20260508131144 | 54 | 300 | 0.0 | 0.0 | 0.00 | 0.00 | 0.00 | 94 | |
| 20260508130635 | 54 | 300 | 0.0 | 0.0 | 0.00 | 0.00 | 0.00 | 94 | |
| 20260508130123 | 54 | 300 | 0.0 | 0.0 | 0.00 | 0.00 | 0.00 | 94 | |
| 20260508124948 | 54 | 300 | 0.0 | 0.0 | 0.00 | 0.00 | 0.00 | 94 | |
| 20260508123835 | 53 | 300 | 0.0 | 0.0 | 0.00 | 0.00 | 0.00 | 94 | |
| 20260508123340 | 53 | 300 | 0.0 | 0.0 | 0.00 | 0.00 | 0.00 | 94 | |
| 20260508122839 | 53 | 300 | 0.0 | 0.0 | 0.00 | 0.00 | 0.00 | 94 | |
| 20260508122322 | 53 | 300 | 0.0 | 0.0 | 0.00 | 0.00 | 0.00 | 94 | |
| 20260508121819 | 52 | 300 | 0.0 | 0.0 | 0.00 | 0.00 | 0.00 | 94 | |
| 20260508121306 | 52 | 300 | 0.0 | 0.0 | 0.00 | 0.00 | 0.00 | 94 | |
| 20260508120805 | 52 | 300 | 0.0 | 0.0 | 0.00 | 0.00 | 0.00 | 93 | |
| 20260508115014 | 51 | 300 | 0.0 | 0.0 | 0.00 | 0.01 | 0.00 | 93 | |
| 20260508114458 | 51 | 300 | 0.0 | 0.0 | 0.00 | 0.01 | 0.00 | 92 | |
| 20260508113956 | 50 | 300 | 0.0 | 0.0 | 0.00 | 0.01 | 0.00 | 92 | |
| 20260508112839 | 50 | 300 | 0.0 | 0.0 | 0.00 | 0.01 | 0.00 | 91 | |
| 20260508112329 | 50 | 300 | 0.0 | 0.0 | 0.00 | 0.01 | 0.00 | 91 | |
| 20260508111836 | 50 | 300 | 0.0 | 0.0 | 0.00 | 0.01 | 0.00 | 91 | |
| 20260508111323 | 50 | 300 | 0.0 | 0.0 | 0.00 | 0.01 | 0.00 | 91 | |
| 20260508110820 | 50 | 300 | 0.0 | 0.0 | 0.00 | 0.01 | 0.00 | 91 | |
| 20260508110312 | 50 | 300 | 0.0 | 0.0 | 0.00 | 0.01 | 0.00 | 91 | |
| 20260508105814 | 51 | 300 | 0.0 | 0.0 | 0.00 | 0.01 | 0.00 | 91 | |
| 20260508105305 | 51 | 300 | 0.0 | 0.0 | 0.00 | 0.01 | 0.00 | 91 | |
| 20260508104121 | 51 | 300 | 0.0 | 0.0 | 0.00 | 0.01 | 0.00 | 91 | |
| 20260508103604 | 51 | 300 | 0.0 | 0.0 | 0.00 | 0.01 | 0.00 | 91 | |
| 20260508103044 | 51 | 300 | 0.0 | 0.0 | 0.00 | 0.01 | 0.00 | 91 | |
| 20260508102546 | 51 | 300 | 0.0 | 0.0 | 0.00 | 0.01 | 0.00 | 91 | |
| 20260508102043 | 51 | 300 | 0.0 | 0.0 | 0.00 | 0.01 | 0.00 | 91 | |
| 20260508100915 | 51 | 300 | 0.0 | 0.0 | 0.00 | 0.01 | 0.00 | 90 | |
| 20260508100411 | 51 | 300 | 0.0 | 0.0 | 0.00 | 0.01 | 0.00 | 90 | |
| 20260508095245 | 51 | 300 | 0.0 | 0.0 | 0.00 | 0.01 | 0.00 | 90 | |
| 20260508093443 | 52 | 300 | 0.0 | 0.0 | 0.00 | 0.01 | 0.00 | 89 | |
| 20260508092940 | 52 | 300 | 0.0 | 0.0 | 0.00 | 0.01 | 0.00 | 89 | |
| 20260508092420 | 52 | 300 | 0.0 | 0.0 | 0.00 | 0.01 | 0.00 | 89 | |
| 20260508091908 | 52 | 300 | 0.0 | 0.0 | 0.00 | 0.01 | 0.00 | 89 | |
| 20260508091352 | 52 | 300 | 0.0 | 0.0 | 0.00 | 0.01 | 0.00 | 89 | |
| 20260508090851 | 52 | 300 | 0.0 | 0.0 | 0.00 | 0.01 | 0.00 | 89 | |
| 20260508090343 | 52 | 300 | 0.0 | 0.0 | 0.00 | 0.01 | 0.00 | 89 | |
| 20260508085834 | 52 | 300 | 0.0 | 0.0 | 0.00 | 0.01 | 0.00 | 89 | |
| 20260508085335 | 53 | 300 | 0.0 | 0.0 | 0.00 | 0.01 | 0.00 | 89 | |
| 20260508084834 | 53 | 300 | 0.0 | 0.0 | 0.00 | 0.01 | 0.00 | 89 | |
| 20260508083709 | 53 | 300 | 0.0 | 0.0 | 0.00 | 0.01 | 0.00 | 89 | |
| 20260508083202 | 53 | 300 | 0.0 | 0.0 | 0.00 | 0.01 | 0.00 | 89 | |
| 20260508082651 | 53 | 300 | 0.0 | 0.0 | 0.00 | 0.01 | 0.00 | 89 | |
| 20260508082143 | 53 | 300 | 0.0 | 0.0 | 0.00 | 0.01 | 0.00 | 89 | |
| 20260508081639 | 53 | 300 | 0.0 | 0.0 | 0.00 | 0.01 | 0.00 | 89 | |
| 20260508081132 | 53 | 300 | 0.0 | 0.0 | 0.00 | 0.01 | 0.00 | 89 | |
| 20260508080618 | 53 | 300 | 0.0 | 0.0 | 0.00 | 0.01 | 0.00 | 89 | |
| 20260508080108 | 54 | 300 | 0.0 | 0.0 | 0.00 | 0.01 | 0.00 | 88 | |
| 20260508074936 | 54 | 300 | 0.0 | 0.0 | 0.00 | 0.01 | 0.00 | 88 | |
| 20260508074420 | 54 | 300 | 0.0 | 0.0 | 0.00 | 0.01 | 0.00 | 88 | |
| 20260508073903 | 54 | 300 | 0.0 | 0.0 | 0.00 | 0.01 | 0.00 | 88 | |
| 20260508073349 | 54 | 300 | 0.0 | 0.0 | 0.00 | 0.01 | 0.00 | 88 | |
| 20260508072830 | 54 | 300 | 0.0 | 0.0 | 0.00 | 0.01 | 0.00 | 88 | |
| 20260508072315 | 54 | 300 | 0.0 | 0.0 | 0.00 | 0.01 | 0.00 | 88 | |
| 20260508071807 | 54 | 300 | 0.0 | 0.0 | 0.00 | 0.01 | 0.00 | 88 | |
| 20260508071304 | 55 | 300 | 0.0 | 0.0 | 0.00 | 0.01 | 0.00 | 87 | |
| 20260508070751 | 55 | 300 | 0.0 | 0.0 | 0.00 | 0.01 | 0.00 | 87 | |
| 20260508070231 | 55 | 300 | 0.0 | 0.0 | 0.00 | 0.01 | 0.00 | 88 | |
| 20260508065737 | 55 | 300 | 0.0 | 0.0 | 0.00 | 0.01 | 0.01 | 88 | |
| 20260508065219 | 55 | 300 | 0.0 | 0.0 | 0.00 | 0.01 | 0.01 | 87 | |
| 20260508064704 | 55 | 300 | 0.0 | 0.0 | 0.00 | 0.01 | 0.01 | 87 | |
| 20260508064153 | 55 | 300 | 0.0 | 0.0 | 0.00 | 0.01 | 0.01 | 87 | |
| 20260508063647 | 56 | 300 | 0.0 | 0.0 | 0.00 | 0.01 | 0.01 | 87 | |
| 20260508063143 | 56 | 300 | 0.0 | 0.0 | 0.00 | 0.01 | 0.01 | 87 | |
| 20260508062636 | 56 | 300 | 0.0 | 0.0 | 0.00 | 0.01 | 0.01 | 87 | |
| 20260508062123 | 56 | 300 | 0.0 | 0.0 | 0.00 | 0.01 | 0.01 | 86 | |
| 20260508061631 | 56 | 300 | 0.0 | 0.0 | 0.00 | 0.01 | 0.01 | 86 | |
| 20260508061117 | 56 | 300 | 0.0 | 0.0 | 0.00 | 0.01 | 0.01 | 85 | |
| 20260508060615 | 56 | 300 | 0.0 | 0.0 | 0.00 | 0.01 | 0.01 | 85 | |
| 20260508054228 | 57 | 300 | 0.0 | 0.0 | 0.00 | 0.01 | 0.01 | 84 | |
| 20260508053715 | 57 | 300 | 0.0 | 0.0 | 0.00 | 0.01 | 0.01 | 84 | |
| 20260508053156 | 57 | 300 | 0.0 | 0.0 | 0.00 | 0.01 | 0.01 | 84 | |
| 20260508052657 | 57 | 300 | 0.0 | 0.0 | 0.00 | 0.01 | 0.01 | 84 | |
| 20260508052156 | 58 | 300 | 0.0 | 0.0 | 0.00 | 0.01 | 0.01 | 84 | |
| 20260508051654 | 58 | 300 | 0.0 | 0.0 | 0.00 | 0.01 | 0.01 | 83 | |
| 20260508051145 | 58 | 300 | 0.0 | 0.0 | 0.00 | 0.01 | 0.01 | 83 | |
| 20260508050633 | 58 | 300 | 0.0 | 0.0 | 0.00 | 0.01 | 0.01 | 82 | |
| 20260508050120 | 59 | 300 | 0.0 | 0.0 | 0.00 | 0.01 | 0.01 | 82 | |
| 20260508045603 | 59 | 300 | 0.0 | 0.0 | 0.00 | 0.01 | 0.01 | 81 | |
| 20260508045108 | 59 | 300 | 0.0 | 0.0 | 0.00 | 0.01 | 0.01 | 81 | |
| 20260508043931 | 60 | 300 | 0.0 | 0.0 | 0.00 | 0.01 | 0.01 | 80 | |
| 20260508043431 | 60 | 300 | 0.0 | 0.0 | 0.00 | 0.01 | 0.01 | 79 | |
| 20260508042912 | 60 | 300 | 0.0 | 0.0 | 0.00 | 0.01 | 0.01 | 79 | |
| 20260508042356 | 61 | 300 | 0.0 | 0.0 | 0.00 | 0.01 | 0.01 | 78 | |
| 20260508041843 | 61 | 300 | 0.0 | 0.0 | 0.00 | 0.01 | 0.01 | 78 | |
| 20260508041335 | 61 | 300 | 0.0 | 1.0 | 0.00 | 0.01 | 0.01 | 77 | |
| 20260508035550 | 63 | 300 | 0.0 | 0.0 | 0.00 | 0.01 | 0.01 | 76 | |
| 20260508035050 | 63 | 300 | 0.0 | 0.0 | 0.00 | 0.01 | 0.01 | 75 | |
| 20260508034600 | 64 | 300 | 0.0 | 0.0 | 0.00 | 0.01 | 0.01 | 75 | |
| 20260508033443 | 65 | 300 | 0.0 | 0.0 | 0.00 | 0.01 | 0.01 | 73 | |
| 20260508032934 | 65 | 300 | 0.0 | 0.0 | 0.00 | 0.01 | 0.01 | 73 | |
| 20260508032439 | 66 | 300 | 0.0 | 0.0 | 0.00 | 0.01 | 0.01 | 72 | |
| 20260508031941 | 66 | 300 | 0.0 | 0.0 | 0.00 | 0.01 | 0.01 | 71 | |
| 20260508031438 | 67 | 300 | 0.0 | 0.0 | 0.00 | 0.01 | 0.01 | 70 | |
| 20260508030918 | 67 | 300 | 0.0 | 0.0 | 0.00 | 0.01 | 0.01 | 70 | |
| 20260508030408 | 67 | 300 | 0.0 | 0.0 | 0.00 | 0.01 | 0.01 | 69 | |
| 20260508025917 | 68 | 300 | 0.0 | 0.0 | 0.00 | 0.01 | 0.01 | 68 | |
| 20260508025402 | 68 | 300 | 0.0 | 0.0 | 0.00 | 0.01 | 0.01 | 68 | |
| 20260508024843 | 69 | 300 | 0.0 | 0.0 | 0.00 | 0.01 | 0.01 | 67 | |
| 20260508024348 | 69 | 300 | 0.0 | 0.0 | 0.00 | 0.01 | 0.01 | 67 | |
| 20260508023835 | 70 | 300 | 0.0 | 0.0 | 0.00 | 0.01 | 0.01 | 67 | |
| 20260508023332 | 70 | 300 | 0.0 | 0.0 | 0.00 | 0.01 | 0.01 | 66 | |
| 20260508022840 | 70 | 300 | 0.0 | 0.0 | 0.00 | 0.01 | 0.01 | 66 | |
| 20260508022326 | 71 | 300 | 0.0 | 1.0 | 0.00 | 0.01 | 0.01 | 64 | |
| 20260508021831 | 71 | 300 | 0.0 | 0.0 | 0.00 | 0.01 | 0.01 | 64 | |
| 20260508021336 | 71 | 300 | 0.0 | 0.0 | 0.00 | 0.01 | 0.01 | 64 | |
| 20260508020834 | 72 | 300 | 0.0 | 2.0 | 0.00 | 0.01 | 0.01 | 63 | |
| 20260508020344 | 72 | 300 | 0.0 | 5.0 | 0.00 | 0.01 | 0.01 | 63 | |
| 20260508015850 | 72 | 300 | 2.0 | 5.0 | 0.00 | 0.01 | 0.01 | 62 | |
| 20260508015353 | 73 | 291 | 2.0 | 6.0 | 0.00 | 0.01 | 0.01 | 61 | |
| 20260508014839 | 73 | 288 | 2.0 | 6.0 | 0.00 | 0.01 | 0.01 | 60 | |
| 20260508014323 | 74 | 285 | 2.0 | 6.0 | 0.00 | 0.01 | 0.01 | 59 | |
| 20260508012523 | 76 | 302 | 3.0 | 6.0 | 0.00 | 0.01 | 0.01 | 56 | |
| 20260508012026 | 76 | 305 | 3.0 | 8.0 | 0.00 | 0.01 | 0.01 | 56 | |
| 20260508010856 | 77 | 299 | 3.0 | 8.0 | 0.00 | 0.01 | 0.01 | 55 | |
| 20260508010359 | 77 | 292 | 3.0 | 7.0 | 0.00 | 0.01 | 0.01 | 55 | |
| 20260508005230 | 78 | 296 | 3.0 | 7.0 | 0.00 | 0.01 | 0.01 | 54 | |
| 20260508004722 | 78 | 303 | 3.0 | 6.0 | 0.00 | 0.01 | 0.01 | 53 | |
| 20260508004224 | 78 | 293 | 3.0 | 6.0 | 0.00 | 0.01 | 0.01 | 54 | |
| 20260508003719 | 78 | 296 | 3.0 | 7.0 | 0.00 | 0.01 | 0.01 | 53 | |
| 20260508003213 | 78 | 294 | 3.0 | 7.0 | 0.00 | 0.01 | 0.01 | 54 | |
| 20260508002656 | 79 | 287 | 3.0 | 7.0 | 0.00 | 0.01 | 0.01 | 53 | |
| 20260508001541 | 80 | 293 | 2.0 | 8.0 | 0.00 | 0.01 | 0.01 | 52 | |
| 20260508000407 | 80 | 298 | 3.0 | 8.0 | 0.00 | 0.01 | 0.01 | 52 | |
| 20260507235902 | 81 | 318 | 3.0 | 8.0 | 0.00 | 0.01 | 0.01 | 50 | |
| 20260507235402 | 81 | 302 | 2.0 | 6.0 | 0.00 | 0.01 | 0.01 | 50 |